NOVA 2

Satellite information

Favourite Embed

Satellite Type and Status

PAYLOADIN ORBIT

Key statistics

Satellite NOVA 2 at a glance.

Uptime

13695

Days in orbit

Revolutions

≈ 13.2

Per day

Orbit

LEO

Low Earth Orbit

Inclination

90.0

Latest

Satellite identification and parameters

Extended collection of information and parameters for NOVA 2.

Object identification

Identified? True

Debris? False

Object name: NOVA 2

International designator: 1988-052A

Object number (NORAD): 19223

Object ID (CCSDS): 19223

Country: UNITED STATES OF AMERICA (US)

Current information (Y/N): Y

RCS size: LARGE

Orbital parameters

Period: 108.849 minutes

Inclination: 89.9872 deg

SMA: 7551.664 km

Apoapsis: 1196.658 km

Periapsis: 1150.4 km

RAAN: 78.273 deg

Eccentricy: 0.00306276

Argument of periapsis: 18.0831 deg

Mean anomaly: 41.2587 deg

Mean motion: 13.22935808 rev/day

Mean motion (dot): 0.00000094 rev/day2

B* drag term: 0.00020194066 1/REarth

Two-line elements (TLE)

Creation date: Dec. 12, 2025, 10:14 a.m.

Reference frame: TEME

Reference center: EARTH

Epoch: Dec. 12, 2025, 7:22 a.m. UTC

TLE line 0: 0 NOVA 2

TLE line 1: 1 19223U 88052A 25346.30757041 .00000094 00000-0 20194-3 0 9999

TLE line 2: 2 19223 89.9872 78.2730 0030628 18.0831 41.2587 13.22935808809420

Live tracking on map

Real-time ground track for satellite NOVA 2.

In-orbit conjunctions

A list of the most updated potential collisions computed for object NOVA 2.

Target Orbit TCA Probability of collision Miss distance Type
NIMBUS 2 DEB SSO 2025-02-19 08:28:57 0.0001847225 493.0 (m) DEBRIS
OSCAR 27 SSO 2024-11-02 21:28:26 0.0006280412 279.0 (m) PAYLOAD
SL-14 DEB LEO 2024-06-22 13:14:06 0.0001369294 388.0 (m) DEBRIS

Associated space launch

Improved Transit navigation satellite

NOVA 2 was lifted into orbit during the mission ‘Scout G-1 | Nova 2’, on board a Scout G-1 space rocket.

The launch took place on June 16, 1988, 6:54 a.m. from Space Launch Complex 5.

For more information about the launch, click the button.

Launch to space Scout G-1 | Nova 2
Scout G-1 | Nova 2

Agency: N/A

Status: Launch Successful

Launch date: June 16, 1988, 6:54 a.m. UTC

Rocket: Scout G-1

Launch pad: Space Launch Complex 5

Location: Vandenberg SFB, CA, USA

...

Latest news about this satellite

There are no fresh news available about this satellite. Check back as we update our databases every day.


Newsletter sign-up

Weekly statistics, charts and insights to help you stay on top of the space industry.